User: anonymous   Login
Location: Unspecified
(0.0000°N, 0.0000°E)
Time: 03:26:29
(UTC+00:00)
Language:

EO-79 - Orbit

View from above orbital plane
View from above orbital plane
View from above satellite
View from above satellite

Ground track
Ground track

The orbit data is extracted from the following two-line orbital elements,

1 40025U 14033R   20185.85011781 +.00000124 +00000-0 +19096-4 0  9995
2 40025 097.9152 110.1582 0010982 242.9112 117.0985 14.89149946327531
Epoch (UTC): 03 July 2020 20:24:10
Eccentricity: 0.0010982
inclination: 97.9152°
perigee height: 593 km
apogee height: 608 km
right ascension of ascending node: 110.1582°
argument of perigee: 242.9112°
revolutions per day: 14.89149946
mean anomaly at epoch: 117.0985°
orbit number at epoch: 32753

The dashed part of the orbit path shows where the satellite is in the earth's shadow,  

DLR